sat.trackr.live / text

‹ back to catalog

STARLINK-6096

NORAD 56103 · 2023-046L

PAYLOAD ACTIVE UNKNOWN

§ Identity

Operator
Country
US
Launch date
2023-03-29
Launch site
AFETR
Launch vehicle
Mass (kg)
RCS (m²)

Purposes: comms

External: N2YO · Heavens-Above · Gunter

§ Orbital elements

Epoch: 2026-09-20T22:22:07.980384Z

Period
94.27 min
Inclination
43.0014°
Eccentricity
0.0001590
Mean motion
15.27579919 rev/d
Perigee alt
482.0 km
Apogee alt
484.1 km
Semi-major
6,861.2 km
B*
3.6630e-5
RAAN
138.7328°
Arg perigee
252.9368°
Mean anomaly
107.1309°
Rev number
19,189

§ Raw data

STARLINK-60961 56103U 23046L   26263.93203681  .00000746  00000+0  36630-4 0  99992 56103  43.0014 138.7328 0001590 252.9368 107.1309 15.27579919191895

JSON: /api/v1/satellites/56103 · /tle

For live sub-satellite position, see the globe view (requires WebGL).

§ Visibility from observer

Set your observer location to see the next 7 days of passes ≥ 10°. The values pass through the URL so the page stays shareable.

No JS? Fill the form by hand. The geolocation button needs JavaScript.